Regional Weather Roundup
Issued by NWS Sterling, VA

Home | Current Version | Previous Version | Text Only | Print | Product List | Glossary Off
Versions: 1 2 3 4 5 6 7 8 9 10 11 12 13 14 15 16 17 18 19 20 21 22 23 24 25 26 27

000
ASUS41 KLWX 230711
RWRLWX

REGIONAL WEATHER ROUNDUP
NATIONAL WEATHER SERVICE BALTIMORE MD/WASHINGTON DC
300 AM EDT WED AUG 23 2017

Note: "FAIR" indicates few or no clouds below 12,000 feet
with no significant weather and/or obstructions to visibility.
 TC=TEMPERATURE CELSIUS

 * =Non NWS site. Station does not report precipitation (e.g. rain,
    snow, etc.), thunder, or fog.

DCZ001-MDZ009-015-VAZ040>042-051-053>054-230800-
WASHINGTON METRO

CITY           SKY/WX    TMP DP  RH WIND       PRES   REMARKS
WASHINGTON NAT CLOUDY    80  69  69 NW3       29.81F
DULLES         CLOUDY    74  71  91 S3        29.82F
ANDREWS AFB    PTCLDY    78  67  69 CALM      29.81F
FT BELVOIR     PTCLDY    77  68  72 CALM      29.82S
QUANTICO       CLOUDY    78  75  90 NW6       29.82F
COLLEGE PARK*  CLOUDY    78  67  69 W5        29.81S
LEESBURG*      CLOUDY    77  72  83 NW12      29.84S
MANASSAS*      CLOUDY    75  70  84 W3        29.82F
GAITHERSBURG*  CLOUDY    72  70  93 W5        29.84S

$$

MDZ006>007-011-014-230800-
BALTIMORE METRO

CITY           SKY/WX    TMP DP  RH WIND       PRES   REMARKS
BWI AIRPORT    MOCLDY    77  70  79 SW7       29.80F
MD SCIENCE CTR   N/A     77  72  84 MISG      29.80F
MARTIN STATE   CLOUDY    75  73  94 CALM      29.81S
ANNAPOLIS      PTCLDY    81  74  79 W3        29.79F
FORT MEADE*    PTCLDY    72  68  88 W3        29.83S

$$

MDZ012-015-019>023-230800-
MARYLAND EASTERN SHORE

CITY           SKY/WX    TMP DP  RH WIND       PRES   REMARKS
OCEAN CITY     CLEAR     80  77  90 SW9       29.82F
SALISBURY      CLEAR     78  77  96 SW8       29.81F
BAY BRIDGE AP* PTCLDY    81  73  78 NW5       29.80F
CAMBRIDGE*     MOCLDY    81  75  83 W3        29.81R
EASTON*        MOCLDY    82  74  77 W6        29.85S

$$

MDZ017>025-230800-
SOUTHERN MARYLAND

CITY           SKY/WX    TMP DP  RH WIND       PRES   REMARKS
PATUXENT RIVER CLEAR     80  75  84 SW12G20   29.80F
ST INIGOES     CLEAR     81  76  84 SW13G22   29.80F
LEONARDTOWN*   CLEAR     79  72  78 W7        29.83R

$$

MDZ003>005-230800-
NORTH CENTRAL MARYLAND

CITY           SKY/WX    TMP DP  RH WIND       PRES   REMARKS
FREDERICK*     CLOUDY    73  73 100 CALM      29.85R
HAGERSTOWN APT CLOUDY    74  70  87 W6        29.83F
WESTMINSTER*   CLOUDY    72  72 100 SW5       29.83S

$$

MDZ501>502-230800-
WESTERN MARYLAND

CITY           SKY/WX    TMP DP  RH WIND       PRES   REMARKS
OAKLAND*       CLOUDY    63  63 100 W7        29.94S
CUMBERLAND*    CLOUDY    70  70 100 CALM      29.90S

$$

VAZ025>031-230800-
SHENANDOAH VALLEY

CITY           SKY/WX    TMP DP  RH WIND       PRES   REMARKS
WINCHESTER*    CLOUDY    72  68  88 W7        29.86R
FRONT ROYAL*   CLOUDY    73  70  88 CALM      29.85S
LURAY*         CLOUDY    75  70  83 CALM      29.87R
NEW MARKET*    CLOUDY    73  69  88 CALM      29.86S
STAUNTON*      CLOUDY    74  65  72 W6        29.91S
WAYNESBORO*    CLOUDY    76  67  74 CALM      29.90S

$$

WVZ021-048>050-054>055-230800-
EASTERN WEST VIRGINIA PANHANDLE

CITY           SKY/WX    TMP DP  RH WIND       PRES   REMARKS
MARTINSBURG    CLOUDY    72  67  84 W10       29.83S
PETERSBURG*    CLOUDY    74  71  89 N3        29.89S

$$

VAZ036>039-050-230800-
CENTRAL FOOTHILLS

CITY           SKY/WX    TMP DP  RH WIND       PRES   REMARKS
CHARLOTTESVILL PTCLDY    80  68  66 CALM      29.84S
CULPEPER*      CLOUDY    73  71  93 CALM      29.83F
ORANGE*        MOCLDY    73  68  83 CALM      29.83S
GORDONSVILLE*  MOCLDY    73  71  93 CALM      29.83S
WARRENTON*     CLOUDY    74  68  81 SE5       29.82S

$$

VAZ055>057-230800-
NORTH AND CENTRAL PIEDMONT

CITY           SKY/WX    TMP DP  RH WIND       PRES   REMARKS
FREDERICKSBRG* CLEAR     79  73  82 CALM      29.81S
STAFFORD*      CLOUDY    74  74 100 CALM      29.86S

$$

NCZ024-NYZ072-PAZ021-071-VAZ022-071-230800-
OTHER REGIONAL OBSERVATIONS

CITY           SKY/WX    TMP DP  RH WIND       PRES   REMARKS
NEW YORK CITY  CLOUDY    73  72  96 MISG      29.79F
PHILADELPHIA   CLOUDY    76  73  91 SW12      29.79F
PITTSBURGH     MOCLDY    67  65  93 NW6       29.91R
ROANOKE        PTCLDY    75  66  73 NW3       29.92S
RICHMOND       PTCLDY    78  73  84 SW9       29.84S
RALEIGH        PTCLDY    78  73  84 SW12      29.92S

$$

ANZ530>537-230800-
MARINE OBSERVATIONS

STATION/POSITION TIME  TEMP    WIND        PRES
                       AIR SEA DIR/SP/G
                 (UTC) (F)     (DEG/KT/KT) (MB)
THOMAS PT LIGHT  0700   81 81  260/  6/  6   N/A
BALT KEY BRIDGE  0648   78     260/  5/  7 1008.8F
COVE POINT       0648   82     270/ 11/ 19 1009.9R
LEWISETTA        0648   80 83  240/ 10/ 12 1009.3F
SOLOMONS ISLAND  0636   81 82  230/ 14/ 20   N/A
PINEY POINT      0648          240/ 13/ 15   N/A

$$





USA.gov is the U.S. government's official web portal to all federal, state and local government web resources and services.